AirNav   ProFlight Series 2 Aviation Headset
 
 1510 users online  

PS33 Patriot American Park Heliport
Allentown, Pennsylvania, USA

GOING TO ALLENTOWN?


FAA INFORMATION EFFECTIVE 13 AUGUST 2020

Location

FAA Identifier: PS33
Lat/Long: 40-37-59.0000N 075-27-31.0000W
40-37.983333N 075-27.516667W
40.6330556,-75.4586111
(estimated)
Elevation: 358 ft. / 109 m
From city: 2 miles NE of ALLENTOWN, PA
Time zone: UTC -4 (UTC -5 during Standard Time)
Zip code: 18103

Heliport Operations

Heliport use: Private use. Permission required prior to landing
Activation date: 10/2003
Control tower: no
ARTCC: NEW YORK CENTER
FSS: WILLIAMSPORT FLIGHT SERVICE STATION
Attendance: UNATNDD
Wind indicator: lighted
Segmented circle: no
Lights: FOR PERIMETER LGTS CALL 610-712-5951.

Heliport Communications

WX ASOS at ABE (1.4 nm NE): 126.975 (610-266-3579)
WX AWOS-3 at XLL (4 nm S): 127.875 (610-231-3111)
WX AWOS-3 at UKT (12 nm S): 119.475 (215-538-7610)
WX AWOS-3 at CKZ (17 nm SE): 126.325 (215-257-7291)
WX AWOS-3PT at 22N (17 nm NW): 119.350 (570-386-3423)

Nearby radio navigation aids

VOR radial/distance  VOR name  Freq  Var
FJCr192/5.6ALLENTOWN VORTAC117.5010W
ETXr082/10.7EAST TEXAS VOR/DME110.2009W
PTWr020/25.1POTTSTOWN VORTAC116.5009W
BWZr262/30.6BROADWAY VOR/DME114.2011W
SBJr285/32.8SOLBERG VOR/DME112.9010W
ARDr322/33.9YARDLEY VOR/DME108.2010W
STWr242/34.5STILLWATER VOR/DME109.6011W
LVZr175/39.8WILKES-BARRE VORTAC111.6010W

 
NDB name  Hdg/Dist  Freq  Var  ID
AMBLER357/31.427512WING .. -. --.

Heliport Services

Runway Information

Helipad H1

Dimensions: 50 x 80 ft. / 15 x 24 m
Surface: concrete
Runway edge lights: PERI
Traffic pattern: leftleft

Heliport Ownership and Management from official FAA records

Ownership: Privately-owned
Owner: PATRIOT AMERICAN PARKWAY, LP
1200 LIBERTY RIDGE DR; SUITE 115
WAYNE, PA 19087
Phone (484) 615-1204
Manager: MICHAEL C. KOLAR
1200 LIBERTY RIDGE DR - SUITE 115
WAYNE, PA 19087
Phone (484) 615-1204

Additional Remarks

A52-H1 RY H1 65 FT TREES 220 FT & PLINES & POLES 520 FT WEST.
FOR CD CTC ALLENTOWN APCH AT 800-728-6322.

Instrument Procedures

There are no published instrument procedures at PS33.

Some nearby airports with instrument procedures:

KABE - Lehigh Valley International Airport (1 nm NE)
KXLL - Allentown Queen City Municipal Airport (4 nm S)
N43 - Braden Airpark (12 nm NE)
KUKT - Quakertown Airport (12 nm S)
KCKZ - Pennridge Airport (17 nm SE)
22N - Jake Arner Memorial Airport (17 nm NW)
 
Loc | Ops | Rwys | IFR | FBO | Links
Com | Nav | Svcs | Stats | Notes
Area around PS33 (Patriot American Park Heliport)
 
Road maps at: MapQuest Bing Google
 
Aerial photo
No photo
 
Sectional chart

 
Airport distance calculator
Flying to Patriot American Park Heliport? Find the distance to fly.

From to PS33

Sunrise and sunset
Times for 13-Aug-2020
 Local
(UTC-4)
 Zulu
(UTC)
Morning civil twilight05:4309:43
Sunrise06:1210:12
Sunset20:0100:01
Evening civil twilight20:3000:30

Current date and time
Zulu (UTC)  13-Aug-2020 19:57:54
Local (UTC-4)  13-Aug-2020 15:57:54
 
METAR
KABE 131951Z 05007KT 10SM CLR 27/21 A3007 RMK AO2 SLP179 T02720211
KXLL 
4nm S 
131935Z AUTO 01004KT 10SM CLR 27/22 A3008 RMK AO2
KUKT 
12nm S 
131955Z AUTO 10005KT 10SM BKN025 BKN030 27/22 A3009 RMK A01
KCKZ 
17nm SE 
131955Z AUTO 12004KT 10SM SCT019 SCT026 25/23 A3010 RMK AO2
K22N 
17nm NW 
131955Z AUTO 13004KT 10SM SCT028 SCT080 28/22 A3008 RMK AO2
TAF
KABE 131729Z 1318/1418 05006KT P6SM SCT025 BKN200 FM140000 VRB02KT P6SM SCT200 FM140800 VRB02KT 4SM BR SCT010 FM141200 06005KT P6SM SCT040
NOTAMs
Click for the latest NOTAMs
NOTAMs are issued by the DoD/FAA and will open in a separate window not controlled by AirNav.

 

 
 

Would you like to see your business listed on this page?

 If your business provides an interesting product or service to pilots, flight crews, aircraft, or users of the Patriot American Park Heliport, you should consider listing it here.  To start the listing process, click on the button below
 
Add a business
 

Other Pages about Patriot American Park Heliport

Update a link
 
Copyright © AirNav, LLC. All rights reserved. Privacy Policy  Contact